Regional Weather Roundup
Issued by NWS

Home | Current Version | Previous Version | Text Only | Print | Product List | Glossary On
Versions: 1 2 3 4 5 6 7 8 9 10 11 12 13 14 15 16 17 18 19 20 21 22 23 24 25 26 27 28 29 30 31 32 33 34 35 36 37 38 39 40 41 42 43 44 45 46 47 48 49 50
000
ASPQ40 PGUM 172012
RWRPQ
WEATHER ROUNDUP FOR THE MARIANAS AND MICRONESIA
NATIONAL WEATHER SERVICE TIYAN GU
600 AM CHST THU SEP 18 2014

GUZ001>004-172100-
MARIANA ISLANDS-

CITY           SKY/WX    TMP DP  RH WIND       PRES   REMARKS
GUAM AIRPORT   CLEAR     79  73  83 E6        29.94R
ANDERSEN AFB   MOCLDY    77  73  88 E5        29.94R
ROTA AIRPORT   MOCLDY    75  73  94 CALM      29.95
TINIAN AP      PTCLDY    77  73  88 CALM      29.91
SAIPAN AP      CLEAR     79  73  83 E3        29.93R

$$

PMZ161-172100-
REPUBLIC OF PALAU-

CITY           SKY/WX    TMP DP  RH WIND       PRES   REMARKS
KOROR AP       MOCLDY    81  75  83 SW7       29.82R
KOROR WSO      CLOUDY    82  75  78 W8        29.81S

$$

PMZ171>174-172100-
FEDERATED STATES OF MICRONESIA-

CITY           SKY/WX    TMP DP  RH WIND       PRES   REMARKS
YAP AIRPORT    MOCLDY    81  77  89 VRB6      29.84R
CHUUK AP       MOCLDY    79  79 100 NE7       29.81R
POHNPEI AP     NOT AVBL
POHNPEI WSO    PTCLDY    77  75  94 SE3       29.87R
KOSRAE AP      NOT AVBL

$$

PMZ181-172100-
REPUBLIC OF THE MARSHALL ISLANDS-

CITY           SKY/WX    TMP DP  RH WIND       PRES   REMARKS
KWAJALEIN AP   SUNNY     81  75  83 W3        29.87S
MAJURO AP      NOT AVBL
MAJURO WSO     PTSUNNY   81  75  83 VRB3      29.86R

$$



USA.gov is the U.S. government's official web portal to all federal, state and local government web resources and services.